Regional Weather Roundup
Issued by NWS

Home | Current Version | Previous Version | Text Only | Print | Product List | Glossary On
Versions: 1 2 3 4 5 6 7 8 9 10 11 12 13 14 15 16 17 18 19 20 21 22 23 24 25 26 27
000
ASUS45 KTFX 231710
RWRMT
MONTANA REGIONAL WEATHER ROUNDUP
NATIONAL WEATHER SERVICE GREAT FALLS MT
1000 AM MST TUE JAN 23 2018

NOTE: "FAIR" INDICATES FEW OR NO CLOUDS BELOW 12000 FEET WITH NO
SIGNIFICANT WEATHER AND/OR OBSTRUCTIONS TO VISIBILITY.

MTZ001>007-043-231800-
WEST OF THE DIVIDE

CITY           SKY/WX    TMP DP  RH WIND       PRES   REMARKS
KALISPELL      FAIR      23  19  85 CALM      30.22R
MISSOULA       FOG       21  20  96 CALM      30.26F VSB 1/4
BUTTE          FAIR       4   1  88 CALM      30.23R
MULLAN PASS    LGT SNOW  21  20  96 S8        30.09S FOG     WCI  11
ANACONDA         N/A     27  12  54 SW10      30.22S WCI  17
DEER LODGE       N/A     18  10  73 CALM      30.25S
EUREKA           N/A     32  23  69 MISG      30.21R
HAMILTON         N/A     30  19  64 S15       30.24S WCI  19
PLAINS           N/A     25  21  84 CALM      30.23S VSB 0
RONAN            N/A     21  19  93 CALM      30.24S
$$

MTZ008-052>055-231800-
SOUTHWEST MONTANA

CITY           SKY/WX    TMP DP  RH WIND       PRES   REMARKS
BOZEMAN        FAIR      16  10  77 S6        30.25S WCI   7
DILLON         FAIR      13  10  88 SW14      30.25R WCI  -2
ENNIS          PTSUNNY   21  12  68 S12       30.29R WCI   9
W YELLOWSTONE  PTSUNNY    7   3  85 CALM      30.25R
THREE FORKS      N/A     22  18  85 CALM      30.21S
TWIN BRIDGES     N/A     22  13  68 CALM      30.22R
$$

MTZ009-010-012-014-046-048-049-054-231800-
EAST SLOPES AND CENTRAL MONTANA

CITY           SKY/WX    TMP DP  RH WIND       PRES   REMARKS
CUT BANK       FAIR      32  16  51 W20G26    30.08F WCI  20
GREAT FALLS    FAIR      32  16  51 SW16      30.15R WCI  21
MALMSTROM AFB  FAIR      32  18  54 SW20      30.16S WCI  21
HELENA         PTSUNNY   27  18  69 S10       30.22S WCI  17
AUGUSTA        FAIR      29  16  57 SW17      30.11S WCI  17
BOWMANS CRNR   FAIR      28  18  66 S18       30.12S WCI  15
CHOTEAU          N/A     30  16  55 SW8       30.13S WCI  23
CONRAD           N/A     18  12  77 S5        30.12
FAIRFIELD      FAIR      30  15  54 SW10      30.12S WCI  21
POWER          FAIR      22  15  72 SW9       30.13S WCI  12
RAYNESFORD     FAIR      32  12  43 SW16G24   30.15R WCI  22
ULM            FAIR      32  18  56 SW8       30.16F WCI  25
WHITE SULPHUR    N/A     21  10  63 S7        30.16S WCI  13
$$

MTZ011-013-016-021-045-047-050-051-231800-
NORTH CENTRAL MONTANA

CITY           SKY/WX    TMP DP  RH WIND       PRES   REMARKS
HAVRE          FAIR      21  15  78 W12       30.15S WCI   9
LEWISTOWN      FAIR      27  17  66 SW13      30.16R WCI  16
N BAR RANCH    FAIR      30  12  47 W22G28    30.16R WCI  17
CHINOOK          N/A     27  18  69 W9        30.14S WCI  17
DENTON         FAIR      28  17  63 MISG      30.12S
GEYSER         FAIR      28  16  58 W8        30.15S WCI  20
GRASS RANGE    FAIR      30  16  56 W14       30.13R WCI  19
STANFORD       FAIR      30  13  49 W21       30.13S WCI  17
WINIFRED       FAIR      30  18  60 SW10      30.14S WCI  21
$$

MTZ017>020-022>027-061-062-231800-
NORTHEAST MONTANA

CITY           SKY/WX    TMP DP  RH WIND       PRES   REMARKS
GLASGOW        FAIR      14  11  87 W7        30.13R FOG     WCI   4
GLENDIVE       FAIR      29  21  72 NW15      30.12R WCI  18
JORDAN           N/A     24  17  74 W10       30.15R WCI  14
SIDNEY         FAIR      28  20  71 W6        30.13R WCI  22
WOLF POINT     PTSUNNY   17  13  84 SW8       30.14S WCI   7
PLENTYWOOD       N/A     18  12  79 CALM      30.09R
POPLAR           N/A     12   9  85 SW7       30.14S WCI   2
SCOBEY           N/A     18  12  77 CALM      30.07R
$$

MTZ028>42-056>058-231800-
SOUTHCENTRAL AND SOUTHEAST MONTANA

CITY           SKY/WX    TMP DP  RH WIND       PRES   REMARKS
BAKER          FAIR      25  17  72 W3        30.14R
BILLINGS       FAIR      30  16  56 SW8       30.22R WCI  22
LIVINGSTON     FAIR      29  16  58 W18       30.20R WCI  16
MILES CITY     FAIR      24  18  77 W6        30.18R WCI  17
BIG TIMBER     PTSUNNY   30  14  51 SW10      30.23S WCI  21
EKALAKA          N/A     27  17  65 W12       30.09R WCI  17
FORSYTH          N/A     28  19  69 W7        30.19R WCI  21
HARLOWTON      FAIR      26  17  67 W16       30.17R WCI  13
LAUREL           N/A     28  16  59 SW7       30.24R WCI  21
ROUNDUP          N/A     30  13  49 S12       30.08R WCI  20
$$

REGIONAL REPORTS...DAKOTAS

CITY           SKY/WX    TMP DP  RH WIND       PRES   REMARKS
WILLISTON      FAIR      20  14  77 SW8       30.12R WCI  10
MINOT          CLOUDY    19  15  84 NW15      30.07R FOG     WCI   5
DICKINSON      FAIR      29  20  69 W15       30.07R WCI  18
BEACH          FAIR      25  18  74 W13       30.14R WCI  13
CROSBY         FOG       19  19 100 N9        30.11R VSB 1   WCI   9
TIOGA          FOG       12  12 100 W6        30.09R VSB 1/4 WCI   3
WATFORD CITY   FAIR      23  18  80 SW6       30.10R WCI  16
BISMARCK       FAIR      21  18  88 CALM      30.10R
GRAND FORKS    FLURRIES  22  18  85 SW12      30.09S WCI  10
FARGO          CLOUDY    21  17  84 CALM      30.12R
BUFFALO SD       N/A     31  20  63 W15       30.06R WCI  20
RAPID CITY     FAIR      40  19  43 NW17      30.15R
$$

REGIONAL REPORTS...WYOMING/IDAHO/WASHINGTON

CITY           SKY/WX    TMP DP  RH WIND       PRES   REMARKS
GILLETTE       FAIR      31  18  58 W9        30.19R WCI  23
SHERIDAN       CLOUDY    32  16  51 NE3       30.22R
BUFFALO WY     PTSUNNY   28  10  46 S3        30.20R
CODY           FAIR      30  11  45 W3        30.22R
YELLOWSTONE LA   N/A      6   4  91 CALM      30.22R
IDAHO FALLS    CLOUDY    26  24  92 SW6       30.35R WCI  19
SALMON         FAIR      22  14  71 N3        30.35R
BOISE          FAIR      35  23  61 SE10      30.30R WCI  27
SPOKANE        CLOUDY    29  29 100 NE5       30.17S FOG
$$

REGIONAL REPORTS...ALBERTA

CITY           SKY/WX    TMP DP  RH WIND       PRES   REMARKS
CALGARY        MOSUNNY   25  10  54 S3        30.01S
CARDSTON         N/A     32  14  47 W12         N/A  WCI  23
EDMONTON       CLEAR     21  12  68 W7        30.01R WCI  13
FORT MCMURRAY  FLURRIES  10   9  92 E3        30.05R
HIGH LEVEL     CLOUDY     7   5  92 VRB2      30.01S
LETHBRIDGE     MOSUNNY   32  18  55 W17       30.07S WCI  21
LLOYDMINSTER   MOSUNNY   14  12  92 NW3       29.99R FOG
MEDICINE HAT   PTSUNNY   27  19  74 SW6       30.08S WCI  20
MILK RIVER       N/A     25  14  63 W1          N/A
PEACE RIVER    FOG        5   0  78 W3        29.94S VSB 1/4
PINCHER CREEK  PTSUNNY   30  18  59 W23G32    30.05F WCI  17
WATERTON GATE    N/A     32  12  43 SW24G38     N/A  WCI  19
$$

REGIONAL REPORTS...SASKATCHEWAN

CITY           SKY/WX    TMP DP  RH WIND       PRES   REMARKS
CORONACH         N/A     19  14  79 E2          N/A
CYPRESS HILLS    N/A     28   7  40 NW3         N/A
ESTEVAN        LGT SNOW  18  16  93 NW12      30.09R DRFTSNOWWCI   5
MOOSE JAW        N/A     16  14  93 SE3         N/A
PRINCE ALBERT  FLURRIES  16  12  86 NW9       30.05R WCI   4
REGINA         CLOUDY    19  19 100 W9        30.07S FOG     WCI   9
ROCKGLEN         N/A     21  16  79 SW2         N/A
SASKATOON      CLOUDY    21  19  93 W7        30.07R FOG     WCI  13
SWIFT CURRENT  SUNNY     23  18  80 SW13      30.04S WCI  11
VAL MARIE        N/A      7   0  72 E2          N/A
$$




USA.gov is the U.S. government's official web portal to all federal, state and local government web resources and services.